Zurück zum Katalog

OPS 4682 DEB

AktivPO
NORAD 38386·DEBRIS·🇺🇸 United States

Gestartet Apr 3, 1965 von Vandenberg Space Force Base

Loading…

Nächste Überflüge (nächste 24 Stunden)

TLE

AktuellSource: Space-Track

Epoche: Sep 13, 2026, 07:58 UTC

1 38386U 65027CP  26256.33202563 -.00000326  00000-0 -10854-2 0  9996
2 38386  90.2925  36.2971 0030598 341.8778  18.1252 13.01344843669133

Verfolge OPS 4682 DEB in Echtzeit mit AllMySat

Download on the App Store